Terug naar catalogus

QIANFAN-9

ActiefCommunicatiePO
NORAD 60387·PAYLOAD·🇨🇳 China

Gelanceerd Aug 6, 2024 vanaf Taiyuan Satellite Launch Center

Loading…

Volgende Passages (komende 24 uur)

TLE

VersSource: Space-Track

Epoch: Sep 14, 2026, 13:39 UTC

1 60387U 24140J   26257.56897267  .00000007  00000-0 -85579-5 0  9994
2 60387  88.9669 270.7142 0018195 117.8135 242.4863 13.51021631104574

Volg QIANFAN-9 in realtime met AllMySat

Download on the App Store